1998-067PK (43598 NORAD) Tracking and Keplerian Element Data

This shows tracking and keplerian element data for the satellite.

Feedback or suggestion? Click here.




ElementValue
Catalog43598
Name1998-067PK
Epoch Orbit5711
Epoch Day228.86540649
Epoch Year2019
RAAN43.712
Inclination51.6366
Eccentricity0.0003343
Argument of Perigee351.8018
Mean Anonmoly8.2921
Mean Motion15.64001763
Decay Rate0.00012191
L11 43598U 98067PK 19228.86540649 .00012191 00000-0 13205-3 0 9991
L22 43598 51.6366 43.7120 0003343 351.8018 8.2921 15.64001763 57113

Live tracking and technical data element details for 1998-067PK (NORAD 43598). 1998-067PK can be tracked NOW for your location showing map with azimuth and elevation plus other details from your city location.

Track the satellite on the map from your city or location and see movement details for azimuth, elevation, latitude, longitude, range, height, and movement on the map or in text.







IsCatalogInMostPopularTable: catalog: 43598, numindb: 187
Update: records affected: 1



GetName: 43598 1998-067PK

Hit Count: updated at: Tue, 20 Aug 2019 18:07:21 GMT